Tracking 35275 objects as of 9-Sep-2026
HD Live streaming from Space Station
objects crossing your sky now

STARLINK-34022

Track STARLINK-34022 now!
10-day predictions
STARLINK-34022 is classified as:


NORAD ID: 63866
Int'l Code: 2025-094C
Launch date: May 10, 2025
Source: United States (US)
Launch site: AIR FORCE WESTERN TEST RANGE (AFWTR)
Your satellite tracking list
Your tracking list is empty




NASA's NSSDC Master Catalog

Two Line Element Set (TLE):
1 63866U 25094C   26251.39657632  .00014575  00000-0  51043-3 0  9994
2 63866  69.9995 132.8835 0003151 267.7203  92.3612 15.29582981 74593
Source of the keplerian elements: AFSPC